TimeEDT,TemperatureF,Dew PointF,Humidity,Sea Level PressureIn,VisibilityMPH,Wind Direction,Wind SpeedMPH,Gust SpeedMPH,PrecipitationIn,Events,Conditions,WindDirDegrees,DateUTC
12:56 AM,75.0,72.0,90,30.05,10.0,NE,5.8,-,N/A,,Mostly Cloudy,40,2013-06-20 04:56:00
1:56 AM,73.9,71.1,91,30.06,10.0,NE,3.5,-,N/A,,Overcast,50,2013-06-20 05:56:00
2:56 AM,73.0,71.1,93,30.04,10.0,NE,3.5,-,N/A,,Mostly Cloudy,50,2013-06-20 06:56:00
3:38 AM,73.4,69.8,88,30.04,10.0,North,5.8,-,N/A,,Mostly Cloudy,10,2013-06-20 07:38:00
3:56 AM,73.0,70.0,90,30.04,10.0,NNE,3.5,-,N/A,,Mostly Cloudy,20,2013-06-20 07:56:00
4:56 AM,73.0,71.1,93,30.05,10.0,NE,6.9,-,N/A,,Mostly Cloudy,40,2013-06-20 08:56:00
5:32 AM,73.4,69.8,88,30.06,10.0,NNE,8.1,-,N/A,,Mostly Cloudy,30,2013-06-20 09:32:00
5:56 AM,73.0,70.0,90,30.07,10.0,NE,9.2,-,N/A,,Mostly Cloudy,50,2013-06-20 09:56:00
6:56 AM,73.0,70.0,90,30.09,10.0,NNE,9.2,-,N/A,,Mostly Cloudy,30,2013-06-20 10:56:00
7:56 AM,73.0,69.1,87,30.12,10.0,NE,10.4,-,N/A,,Mostly Cloudy,50,2013-06-20 11:56:00
8:56 AM,75.0,69.1,82,30.14,10.0,NNE,12.7,-,N/A,,Mostly Cloudy,30,2013-06-20 12:56:00
9:56 AM,77.0,69.1,76,30.14,10.0,NNE,11.5,-,N/A,,Mostly Cloudy,30,2013-06-20 13:56:00
10:56 AM,79.0,68.0,69,30.14,10.0,NE,9.2,-,N/A,,Scattered Clouds,50,2013-06-20 14:56:00
11:56 AM,81.0,69.1,67,30.16,10.0,NE,10.4,-,N/A,,Mostly Cloudy,50,2013-06-20 15:56:00
12:56 PM,81.0,68.0,65,30.16,10.0,NE,12.7,-,N/A,,Mostly Cloudy,40,2013-06-20 16:56:00
1:56 PM,81.0,68.0,65,30.15,10.0,NNE,13.8,-,N/A,,Mostly Cloudy,30,2013-06-20 17:56:00
2:56 PM,80.1,66.9,64,30.14,10.0,East,11.5,-,N/A,,Mostly Cloudy,80,2013-06-20 18:56:00
3:56 PM,80.1,69.1,69,30.14,10.0,NNE,11.5,-,0.00,,Overcast,30,2013-06-20 19:56:00
4:56 PM,81.0,69.1,67,30.13,10.0,NE,9.2,-,0.00,,Mostly Cloudy,40,2013-06-20 20:56:00
5:24 PM,82.4,68.0,62,30.13,10.0,ENE,11.5,-,N/A,,Mostly Cloudy,70,2013-06-20 21:24:00
5:56 PM,81.0,66.9,62,30.12,10.0,East,15.0,19.6,N/A,,Scattered Clouds,80,2013-06-20 21:56:00
6:56 PM,82.0,63.0,52,30.12,10.0,ENE,11.5,-,N/A,,Scattered Clouds,60,2013-06-20 22:56:00
7:56 PM,79.0,63.0,58,30.12,10.0,East,9.2,-,N/A,,Scattered Clouds,80,2013-06-20 23:56:00
8:56 PM,75.9,61.0,60,30.13,10.0,ENE,8.1,-,N/A,,Scattered Clouds,70,2013-06-21 00:56:00
9:56 PM,75.0,62.1,64,30.16,10.0,East,5.8,-,N/A,,Partly Cloudy,80,2013-06-21 01:56:00
10:56 PM,73.0,63.0,71,30.17,10.0,ENE,4.6,-,N/A,,Partly Cloudy,60,2013-06-21 02:56:00
11:56 PM,72.0,64.9,78,30.16,10.0,NE,4.6,-,N/A,,Partly Cloudy,50,2013-06-21 03:56:00